Location: Linz
(48.3300°N, 14.3000°E)
Time: 23:27:41
(UTC+01:00)

OTV 5 (USA 277) - Pass Details

Date: 20 November 2017
Orbit: 404 x 417 km, 43.0° (Epoch: 07 September)

Event Time Altitude Azimuth Distance (km) Brightness Sun altitude
Exits shadow 04:49:06 12° 161° (SSE) 1,345 ? -24.3°
Drops below altitude 10° 04:49:30 10° 156° (SSE) 1,453 ? -24.3°
Sets 04:52:00 0° 136° (SE) 2,309 ? -23.9°
